Location: *
(49.0044°N, 9.5056°E)
Time: 06:41:25
(UTC+00:00)

CZ-2C R/B - Pass Details

Date: 22 September 2019
Orbit: 785 x 870 km, 98.3° (Epoch: 15 October)

Event Time Altitude Azimuth Distance (km) Brightness Sun altitude
Rises 20:55:42 0° 11° (N) 3,441 6.3 -32.5°
Reaches altitude 10° 20:58:06 10° 8° (N) 2,509 5.6 -32.7°
Enters shadow 21:02:35 52° 333° (NNW) 1,074 3.4 -33.2°
